Regional Weather Roundup
Issued by NWS Charleston, WV

Home | Current Version | Previous Version | Text Only | Print | Product List | Glossary Off
Versions: 1 2 3 4 5 6 7 8 9 10 11 12 13 14 15 16 17 18 19 20 21 22 23 24 25 26 27 28 29 30 31 32 33 34 35 36 37 38 39 40 41 42 43 44 45 46 47 48 49 50

000
ASUS41 KRLX 272210
RWRRLX
West Virginia Regional Weather Roundup
National Weather Service Charleston WV
600 PM EDT MON APR 27 2015

Note: "fair" indicates few or no clouds below 12,000 feet with no
significant weather and/or obstructions to visibility.

WVZ003-272300-
Northern Panhandle of West Virginia

CITY           SKY/WX    TMP DP  RH WIND       PRES   REMARKS
WHEELING       CLOUDY    44  33  65 NW13      29.97R
$$

WVZ009-272300-
Northwest West Virginia

CITY           SKY/WX    TMP DP  RH WIND       PRES   REMARKS
PARKERSBURG    CLOUDY    52  35  52 N9        29.99R
$$

WVZ006-272300-
Western West Virginia

CITY           SKY/WX    TMP DP  RH WIND       PRES   REMARKS
HUNTINGTON     PTSUNNY   59  34  39 NW7       29.93R
$$

WVZ015-272300-
West Central West Virginia

CITY           SKY/WX    TMP DP  RH WIND       PRES   REMARKS
CHARLESTON     PTSUNNY   57  31  37 NW10      29.93R
$$

WVZ022-031-272300-
North Central West Virginia

CITY           SKY/WX    TMP DP  RH WIND       PRES   REMARKS
CLARKSBURG     CLOUDY    48  35  60 NW15G22   29.94R
MORGANTOWN     CLOUDY    48  32  53 NW10      29.94R
$$

WVZ025-035-042-045-272300-
Southern West Virginia

CITY           SKY/WX    TMP DP  RH WIND       PRES   REMARKS
BECKLEY        CLOUDY    50  29  44 NW15      29.92S
LOGAN          CLOUDY    55  32  41 CALM      29.90R
BLUEFIELD      PTSUNNY   52  27  38 NW16G22   29.92S
LEWISBURG      CLOUDY    52  29  41 NW9       29.91R
$$

WVZ047-272300-
Northern Mountains of West Virginia

CITY           SKY/WX    TMP DP  RH WIND       PRES   REMARKS
ELKINS         CLOUDY    46  32  58 NW14G24   29.92R
$$

WVZ052-272300-
Eastern Panhandle of West Virginia

CITY           SKY/WX    TMP DP  RH WIND       PRES   REMARKS
MARTINSBURG    CLOUDY    55  33  43 NW16      29.83R
PETERSBURG     CLOUDY    51  33  48 NW15G22   29.90R
$$


USA.gov is the U.S. government's official web portal to all federal, state and local government web resources and services.